Back to catalog

BREEZE-M DEB

TANK

AliveHEO
NORAD 36399·DEBRIS·🇷🇺 Russia

Launched Feb 12, 2010 from Baikonur Cosmodrome

Loading…

Next Passes (next 24 hours)

TLE

FreshSource: Space-Track

Epoch: Sep 12, 2026, 22:11 UTC

1 36399U 10006C   26255.92478979 -.00000009  00000-0  67278-3 0  9995
2 36399  45.9556 311.5808 7208930 235.8843  34.5859  2.26705319135956

Track BREEZE-M DEB in real time with AllMySat

Download on the App Store